owner,sensor,date,latitude,longitude,air_temperature,qcFlag 
COMPS,ioos:station:USF.COMPS:C10:1,2016-01-01T05:05:00Z,27.1690,-82.9260,24.05,1111122 
COMPS,ioos:station:USF.COMPS:C10:1,2016-01-01T05:35:00Z,27.1690,-82.9260,23.98,1111122 
COMPS,ioos:station:USF.COMPS:C10:1,2016-01-01T06:05:00Z,27.1690,-82.9260,23.97,1111122 
COMPS,ioos:station:USF.COMPS:C10:1,2016-01-01T06:35:00Z,27.1690,-82.9260,23.93,1111122 
COMPS,ioos:station:USF.COMPS:C10:1,2016-01-01T07:05:00Z,27.1690,-82.9260,23.9,1111122 
COMPS,ioos:station:USF.COMPS:C10:1,2016-01-01T07:35:00Z,27.1690,-82.9260,23.9,1111122 
COMPS,ioos:station:USF.COMPS:C10:1,2016-01-01T08:05:00Z,27.1690,-82.9260,23.91,1111122 
COMPS,ioos:station:USF.COMPS:C10:1,2016-01-01T08:35:00Z,27.1690,-82.9260,23.87,1111122 
COMPS,ioos:station:USF.COMPS:C10:1,2016-01-01T09:05:00Z,27.1690,-82.9260,23.86,1111122 
COMPS,ioos:station:USF.COMPS:C10:1,2016-01-01T09:35:00Z,27.1690,-82.9260,23.81,1111122 
COMPS,ioos:station:USF.COMPS:C10:1,2016-01-01T10:05:00Z,27.1690,-82.9260,23.8,1111122 
COMPS,ioos:station:USF.COMPS:C10:1,2016-01-01T10:35:00Z,27.1690,-82.9260,23.75,1111122 
COMPS,ioos:station:USF.COMPS:C10:1,2016-01-01T11:05:00Z,27.1690,-82.9260,23.73,1111122 
COMPS,ioos:station:USF.COMPS:C10:1,2016-01-01T11:35:00Z,27.1690,-82.9260,23.73,1111122 
COMPS,ioos:station:USF.COMPS:C10:1,2016-01-01T12:05:00Z,27.1690,-82.9260,23.64,1111122 
COMPS,ioos:station:USF.COMPS:C10:1,2016-01-01T12:35:00Z,27.1690,-82.9260,23.71,1111122 
COMPS,ioos:station:USF.COMPS:C10:1,2016-01-01T13:05:00Z,27.1690,-82.9260,23.76,1111122 
COMPS,ioos:station:USF.COMPS:C10:1,2016-01-01T13:35:00Z,27.1690,-82.9260,23.86,1111122 
COMPS,ioos:station:USF.COMPS:C10:1,2016-01-01T14:05:00Z,27.1690,-82.9260,24.09,1111122 
COMPS,ioos:station:USF.COMPS:C10:1,2016-01-01T14:35:00Z,27.1690,-82.9260,24.15,1111122 
COMPS,ioos:station:USF.COMPS:C10:1,2016-01-01T15:05:00Z,27.1690,-82.9260,24.26,1111122 
COMPS,ioos:station:USF.COMPS:C10:1,2016-01-01T15:35:00Z,27.1690,-82.9260,24.33,1111122 
COMPS,ioos:station:USF.COMPS:C10:1,2016-01-01T16:05:00Z,27.1690,-82.9260,24.21,1111122 
COMPS,ioos:station:USF.COMPS:C10:1,2016-01-01T16:35:00Z,27.1690,-82.9260,24.23,1111122 
COMPS,ioos:station:USF.COMPS:C10:1,2016-01-01T17:05:00Z,27.1690,-82.9260,24.18,1111122 
COMPS,ioos:station:USF.COMPS:C10:1,2016-01-01T17:35:00Z,27.1690,-82.9260,24.22,1111122 
COMPS,ioos:station:USF.COMPS:C10:1,2016-01-01T18:05:00Z,27.1690,-82.9260,24.1,1111122 
COMPS,ioos:station:USF.COMPS:C10:1,2016-01-01T18:35:00Z,27.1690,-82.9260,24.31,1111122 
COMPS,ioos:station:USF.COMPS:C10:1,2016-01-02T05:05:00Z,27.1690,-82.9260,22.7,1111122 
COMPS,ioos:station:USF.COMPS:C10:1,2016-01-02T05:35:00Z,27.1690,-82.9260,22.52,1111122 
COMPS,ioos:station:USF.COMPS:C10:1,2016-01-02T06:05:00Z,27.1690,-82.9260,22.67,1111122 
COMPS,ioos:station:USF.COMPS:C10:1,2016-01-02T06:35:00Z,27.1690,-82.9260,22.84,1111122 
COMPS,ioos:station:USF.COMPS:C10:1,2016-01-02T07:05:00Z,27.1690,-82.9260,22.9,1111122 
COMPS,ioos:station:USF.COMPS:C10:1,2016-01-02T07:35:00Z,27.1690,-82.9260,22.86,1111122 
COMPS,ioos:station:USF.COMPS:C10:1,2016-01-02T08:05:00Z,27.1690,-82.9260,22.78,1111122 
COMPS,ioos:station:USF.COMPS:C10:1,2016-01-02T08:35:00Z,27.1690,-82.9260,22.76,1111122 
COMPS,ioos:station:USF.COMPS:C10:1,2016-01-02T09:05:00Z,27.1690,-82.9260,22.66,1111122 
COMPS,ioos:station:USF.COMPS:C10:1,2016-01-02T09:35:00Z,27.1690,-82.9260,22.51,1111122 
COMPS,ioos:station:USF.COMPS:C10:1,2016-01-02T10:05:00Z,27.1690,-82.9260,22.41,1111122 
COMPS,ioos:station:USF.COMPS:C10:1,2016-01-02T10:35:00Z,27.1690,-82.9260,22.46,1111122 
COMPS,ioos:station:USF.COMPS:C10:1,2016-01-02T11:05:00Z,27.1690,-82.9260,22.04,1111122 
COMPS,ioos:station:USF.COMPS:C10:1,2016-01-02T11:35:00Z,27.1690,-82.9260,21.92,1111122 
COMPS,ioos:station:USF.COMPS:C10:1,2016-01-02T15:05:00Z,27.1690,-82.9260,19.81,1111122 
COMPS,ioos:station:USF.COMPS:C10:1,2016-01-02T15:35:00Z,27.1690,-82.9260,19.77,1111122 
COMPS,ioos:station:USF.COMPS:C10:1,2016-01-02T16:05:00Z,27.1690,-82.9260,19.92,1111122 
COMPS,ioos:station:USF.COMPS:C10:1,2016-01-02T16:35:00Z,27.1690,-82.9260,19.82,1111122 
COMPS,ioos:station:USF.COMPS:C10:1,2016-01-02T17:05:00Z,27.1690,-82.9260,19.71,1111122 
COMPS,ioos:station:USF.COMPS:C10:1,2016-01-02T17:35:00Z,27.1690,-82.9260,19.59,1111122 
COMPS,ioos:station:USF.COMPS:C10:1,2016-01-02T18:05:00Z,27.1690,-82.9260,19.56,1111122 
COMPS,ioos:station:USF.COMPS:C10:1,2016-01-02T18:35:00Z,27.1690,-82.9260,19.9,1111122 
COMPS,ioos:station:USF.COMPS:C10:1,2016-01-02T19:05:00Z,27.1690,-82.9260,19.98,1111122 
COMPS,ioos:station:USF.COMPS:C10:1,2016-01-02T19:35:00Z,27.1690,-82.9260,20.2,1111122 
COMPS,ioos:station:USF.COMPS:C10:1,2016-01-02T20:05:00Z,27.1690,-82.9260,20.22,1111122 
COMPS,ioos:station:USF.COMPS:C10:1,2016-01-02T20:35:00Z,27.1690,-82.9260,20.23,1111122 
COMPS,ioos:station:USF.COMPS:C10:1,2016-01-02T21:05:00Z,27.1690,-82.9260,20.3,1111122 
COMPS,ioos:station:USF.COMPS:C10:1,2016-01-02T21:35:00Z,27.1690,-82.9260,20.54,1111122 
COMPS,ioos:station:USF.COMPS:C10:1,2016-01-02T22:05:00Z,27.1690,-82.9260,20.56,1111122 
COMPS,ioos:station:USF.COMPS:C10:1,2016-01-02T22:35:00Z,27.1690,-82.9260,20.72,1111122 
COMPS,ioos:station:USF.COMPS:C10:1,2016-01-02T23:05:00Z,27.1690,-82.9260,21.25,1111122 
COMPS,ioos:station:USF.COMPS:C10:1,2016-01-02T23:35:00Z,27.1690,-82.9260,21.1,1111122 
COMPS,ioos:station:USF.COMPS:C10:1,2016-01-03T00:05:00Z,27.1690,-82.9260,21.05,1111122 
COMPS,ioos:station:USF.COMPS:C10:1,2016-01-03T00:35:00Z,27.1690,-82.9260,21.22,1111122 
COMPS,ioos:station:USF.COMPS:C10:1,2016-01-03T05:05:00Z,27.1690,-82.9260,20.06,1111122 
COMPS,ioos:station:USF.COMPS:C10:1,2016-01-03T05:35:00Z,27.1690,-82.9260,19.84,1111122 
COMPS,ioos:station:USF.COMPS:C10:1,2016-01-03T06:05:00Z,27.1690,-82.9260,19.4,1111122 
COMPS,ioos:station:USF.COMPS:C10:1,2016-01-03T06:35:00Z,27.1690,-82.9260,19.31,1111122 
COMPS,ioos:station:USF.COMPS:C10:1,2016-01-03T07:05:00Z,27.1690,-82.9260,19.17,1111122 
COMPS,ioos:station:USF.COMPS:C10:1,2016-01-03T07:35:00Z,27.1690,-82.9260,18.92,1111122 
COMPS,ioos:station:USF.COMPS:C10:1,2016-01-03T08:05:00Z,27.1690,-82.9260,18.93,1111122 
COMPS,ioos:station:USF.COMPS:C10:1,2016-01-03T08:35:00Z,27.1690,-82.9260,18.77,1111122 
COMPS,ioos:station:USF.COMPS:C10:1,2016-01-03T09:05:00Z,27.1690,-82.9260,18.58,1111122 
COMPS,ioos:station:USF.COMPS:C10:1,2016-01-03T09:35:00Z,27.1690,-82.9260,19.18,1111122 
COMPS,ioos:station:USF.COMPS:C10:1,2016-01-03T10:05:00Z,27.1690,-82.9260,18.77,1111122 
COMPS,ioos:station:USF.COMPS:C10:1,2016-01-03T10:35:00Z,27.1690,-82.9260,18.64,1111122 
COMPS,ioos:station:USF.COMPS:C10:1,2016-01-03T11:05:00Z,27.1690,-82.9260,18.44,1111122 
COMPS,ioos:station:USF.COMPS:C10:1,2016-01-03T11:35:00Z,27.1690,-82.9260,18.47,1111122 
COMPS,ioos:station:USF.COMPS:C10:1,2016-01-03T12:05:00Z,27.1690,-82.9260,18.46,1111122 
COMPS,ioos:station:USF.COMPS:C10:1,2016-01-03T12:35:00Z,27.1690,-82.9260,18.57,1111122 
COMPS,ioos:station:USF.COMPS:C10:1,2016-01-03T13:05:00Z,27.1690,-82.9260,18.35,1111122 
COMPS,ioos:station:USF.COMPS:C10:1,2016-01-03T13:35:00Z,27.1690,-82.9260,18.3,1111122 
COMPS,ioos:station:USF.COMPS:C10:1,2016-01-03T14:05:00Z,27.1690,-82.9260,18.02,1111122 
COMPS,ioos:station:USF.COMPS:C10:1,2016-01-03T14:35:00Z,27.1690,-82.9260,17.96,1111122 
COMPS,ioos:station:USF.COMPS:C10:1,2016-01-03T15:05:00Z,27.1690,-82.9260,17.76,1111122 
COMPS,ioos:station:USF.COMPS:C10:1,2016-01-03T15:35:00Z,27.1690,-82.9260,17.66,1111122 
COMPS,ioos:station:USF.COMPS:C10:1,2016-01-03T16:05:00Z,27.1690,-82.9260,17.17,1111122 
COMPS,ioos:station:USF.COMPS:C10:1,2016-01-03T16:35:00Z,27.1690,-82.9260,16.95,1111122 
COMPS,ioos:station:USF.COMPS:C10:1,2016-01-03T17:05:00Z,27.1690,-82.9260,16.65,1111122 
COMPS,ioos:station:USF.COMPS:C10:1,2016-01-03T17:35:00Z,27.1690,-82.9260,16.99,1111122 
COMPS,ioos:station:USF.COMPS:C10:1,2016-01-03T18:05:00Z,27.1690,-82.9260,17.19,1111122 
COMPS,ioos:station:USF.COMPS:C10:1,2016-01-03T18:35:00Z,27.1690,-82.9260,17.41,1111122 
COMPS,ioos:station:USF.COMPS:C10:1,2016-01-03T19:05:00Z,27.1690,-82.9260,17.44,1111122 
COMPS,ioos:station:USF.COMPS:C10:1,2016-01-03T19:35:00Z,27.1690,-82.9260,17.6,1111122 
COMPS,ioos:station:USF.COMPS:C10:1,2016-01-03T20:05:00Z,27.1690,-82.9260,17.95,1111122 
COMPS,ioos:station:USF.COMPS:C10:1,2016-01-03T20:35:00Z,27.1690,-82.9260,17.85,1111122 
COMPS,ioos:station:USF.COMPS:C10:1,2016-01-03T21:05:00Z,27.1690,-82.9260,17.96,1111122 
COMPS,ioos:station:USF.COMPS:C10:1,2016-01-03T21:35:00Z,27.1690,-82.9260,18.06,1111122 
COMPS,ioos:station:USF.COMPS:C10:1,2016-01-03T22:05:00Z,27.1690,-82.9260,18.11,1111122 
COMPS,ioos:station:USF.COMPS:C10:1,2016-01-03T22:35:00Z,27.1690,-82.9260,18.21,1111122 
COMPS,ioos:station:USF.COMPS:C10:1,2016-01-03T23:05:00Z,27.1690,-82.9260,18.29,1111122 
COMPS,ioos:station:USF.COMPS:C10:1,2016-01-03T23:35:00Z,27.1690,-82.9260,18.09,1111122 
COMPS,ioos:station:USF.COMPS:C10:1,2016-01-04T00:05:00Z,27.1690,-82.9260,17.78,1111122 
COMPS,ioos:station:USF.COMPS:C10:1,2016-01-04T00:35:00Z,27.1690,-82.9260,17.86,1111122 
COMPS,ioos:station:USF.COMPS:C10:1,2016-01-04T01:05:00Z,27.1690,-82.9260,17.42,1111122 
COMPS,ioos:station:USF.COMPS:C10:1,2016-01-04T01:35:00Z,27.1690,-82.9260,17.69,1111122 
COMPS,ioos:station:USF.COMPS:C10:1,2016-01-04T02:05:00Z,27.1690,-82.9260,17.91,1111122 
COMPS,ioos:station:USF.COMPS:C10:1,2016-01-04T02:35:00Z,27.1690,-82.9260,17.84,1111122 
COMPS,ioos:station:USF.COMPS:C10:1,2016-01-04T03:05:00Z,27.1690,-82.9260,17.65,1111122 
COMPS,ioos:station:USF.COMPS:C10:1,2016-01-04T03:35:00Z,27.1690,-82.9260,17.71,1111122 
COMPS,ioos:station:USF.COMPS:C10:1,2016-01-04T06:05:00Z,27.1690,-82.9260,16.53,1111122 
COMPS,ioos:station:USF.COMPS:C10:1,2016-01-04T06:35:00Z,27.1690,-82.9260,16.53,1111122 
COMPS,ioos:station:USF.COMPS:C10:1,2016-01-04T07:05:00Z,27.1690,-82.9260,16.53,1111122 
COMPS,ioos:station:USF.COMPS:C10:1,2016-01-04T07:35:00Z,27.1690,-82.9260,16.97,1111122 
COMPS,ioos:station:USF.COMPS:C10:1,2016-01-04T09:05:00Z,27.1690,-82.9260,17.62,1111122 
COMPS,ioos:station:USF.COMPS:C10:1,2016-01-04T09:35:00Z,27.1690,-82.9260,17.65,1111122 
COMPS,ioos:station:USF.COMPS:C10:1,2016-01-04T10:05:00Z,27.1690,-82.9260,17.49,1111122 
COMPS,ioos:station:USF.COMPS:C10:1,2016-01-04T10:35:00Z,27.1690,-82.9260,17.82,1111122 
COMPS,ioos:station:USF.COMPS:C10:1,2016-01-04T11:05:00Z,27.1690,-82.9260,17.74,1111122 
COMPS,ioos:station:USF.COMPS:C10:1,2016-01-04T11:35:00Z,27.1690,-82.9260,17.63,1111122 
COMPS,ioos:station:USF.COMPS:C10:1,2016-01-04T12:05:00Z,27.1690,-82.9260,17.61,1111122 
COMPS,ioos:station:USF.COMPS:C10:1,2016-01-04T12:35:00Z,27.1690,-82.9260,17.67,1111122 
COMPS,ioos:station:USF.COMPS:C10:1,2016-01-04T13:05:00Z,27.1690,-82.9260,17.74,1111122 
COMPS,ioos:station:USF.COMPS:C10:1,2016-01-04T13:35:00Z,27.1690,-82.9260,17.56,1111122 
COMPS,ioos:station:USF.COMPS:C10:1,2016-01-04T15:05:00Z,27.1690,-82.9260,17.46,1111122 
COMPS,ioos:station:USF.COMPS:C10:1,2016-01-04T15:35:00Z,27.1690,-82.9260,17.57,1111122 
COMPS,ioos:station:USF.COMPS:C10:1,2016-01-04T16:05:00Z,27.1690,-82.9260,17.49,1111122 
COMPS,ioos:station:USF.COMPS:C10:1,2016-01-04T16:35:00Z,27.1690,-82.9260,17.55,1111122 
COMPS,ioos:station:USF.COMPS:C10:1,2016-01-04T19:05:00Z,27.1690,-82.9260,17.64,1111122 
COMPS,ioos:station:USF.COMPS:C10:1,2016-01-04T19:35:00Z,27.1690,-82.9260,17.71,1111122 
COMPS,ioos:station:USF.COMPS:C10:1,2016-01-04T20:05:00Z,27.1690,-82.9260,17.79,1111122 
COMPS,ioos:station:USF.COMPS:C10:1,2016-01-04T20:35:00Z,27.1690,-82.9260,17.76,1111122 
COMPS,ioos:station:USF.COMPS:C10:1,2016-01-04T21:05:00Z,27.1690,-82.9260,17.85,1111122 
COMPS,ioos:station:USF.COMPS:C10:1,2016-01-04T21:35:00Z,27.1690,-82.9260,17.99,1111122 
COMPS,ioos:station:USF.COMPS:C10:1,2016-01-04T22:05:00Z,27.1690,-82.9260,18.07,1111122 
COMPS,ioos:station:USF.COMPS:C10:1,2016-01-04T22:35:00Z,27.1690,-82.9260,17.97,1111122 
COMPS,ioos:station:USF.COMPS:C10:1,2016-01-04T23:05:00Z,27.1690,-82.9260,18.01,1111122 
COMPS,ioos:station:USF.COMPS:C10:1,2016-01-04T23:35:00Z,27.1690,-82.9260,18.09,1111122 
COMPS,ioos:station:USF.COMPS:C10:1,2016-01-05T01:05:00Z,27.1690,-82.9260,18.05,1111122 
COMPS,ioos:station:USF.COMPS:C10:1,2016-01-05T01:35:00Z,27.1690,-82.9260,18.16,1111122 
COMPS,ioos:station:USF.COMPS:C10:1,2016-01-05T02:05:00Z,27.1690,-82.9260,18.12,1111122 
COMPS,ioos:station:USF.COMPS:C10:1,2016-01-05T02:35:00Z,27.1690,-82.9260,17.95,1111122 
COMPS,ioos:station:USF.COMPS:C10:1,2016-01-05T05:05:00Z,27.1690,-82.9260,17.38,1111122 
COMPS,ioos:station:USF.COMPS:C10:1,2016-01-05T05:35:00Z,27.1690,-82.9260,16.66,1111122 
COMPS,ioos:station:USF.COMPS:C10:1,2016-01-05T06:05:00Z,27.1690,-82.9260,16.58,1111122 
COMPS,ioos:station:USF.COMPS:C10:1,2016-01-05T06:35:00Z,27.1690,-82.9260,16.33,1111122 
COMPS,ioos:station:USF.COMPS:C10:1,2016-01-05T07:05:00Z,27.1690,-82.9260,15.97,1111122 
COMPS,ioos:station:USF.COMPS:C10:1,2016-01-05T07:35:00Z,27.1690,-82.9260,15.89,1111122 
COMPS,ioos:station:USF.COMPS:C10:1,2016-01-05T08:05:00Z,27.1690,-82.9260,15.52,1111122 
COMPS,ioos:station:USF.COMPS:C10:1,2016-01-05T08:35:00Z,27.1690,-82.9260,16.27,1111122 
COMPS,ioos:station:USF.COMPS:C10:1,2016-01-05T09:05:00Z,27.1690,-82.9260,16.1,1111122 
COMPS,ioos:station:USF.COMPS:C10:1,2016-01-05T09:35:00Z,27.1690,-82.9260,16.33,1111122 
COMPS,ioos:station:USF.COMPS:C10:1,2016-01-05T10:05:00Z,27.1690,-82.9260,16.24,1111122 
COMPS,ioos:station:USF.COMPS:C10:1,2016-01-05T10:35:00Z,27.1690,-82.9260,16.11,1111122 
COMPS,ioos:station:USF.COMPS:C10:1,2016-01-05T11:05:00Z,27.1690,-82.9260,15.93,1111122 
COMPS,ioos:station:USF.COMPS:C10:1,2016-01-05T11:35:00Z,27.1690,-82.9260,15.58,1111122 
COMPS,ioos:station:USF.COMPS:C10:1,2016-01-05T12:05:00Z,27.1690,-82.9260,15.53,1111122 
COMPS,ioos:station:USF.COMPS:C10:1,2016-01-05T12:35:00Z,27.1690,-82.9260,15.49,1111122 
COMPS,ioos:station:USF.COMPS:C10:1,2016-01-05T13:05:00Z,27.1690,-82.9260,15.68,1111122 
COMPS,ioos:station:USF.COMPS:C10:1,2016-01-05T13:35:00Z,27.1690,-82.9260,15.65,1111122 
COMPS,ioos:station:USF.COMPS:C10:1,2016-01-05T14:05:00Z,27.1690,-82.9260,15.8,1111122 
COMPS,ioos:station:USF.COMPS:C10:1,2016-01-05T14:35:00Z,27.1690,-82.9260,15.82,1111122 
COMPS,ioos:station:USF.COMPS:C10:1,2016-01-05T15:05:00Z,27.1690,-82.9260,16.02,1111122 
COMPS,ioos:station:USF.COMPS:C10:1,2016-01-05T15:35:00Z,27.1690,-82.9260,16.43,1111122 
COMPS,ioos:station:USF.COMPS:C10:1,2016-01-05T16:05:00Z,27.1690,-82.9260,16.98,1111122 
COMPS,ioos:station:USF.COMPS:C10:1,2016-01-05T16:35:00Z,27.1690,-82.9260,17.36,1111122 
COMPS,ioos:station:USF.COMPS:C10:1,2016-01-05T17:05:00Z,27.1690,-82.9260,17.93,1111122 
COMPS,ioos:station:USF.COMPS:C10:1,2016-01-05T17:35:00Z,27.1690,-82.9260,18.59,1111122 
COMPS,ioos:station:USF.COMPS:C10:1,2016-01-05T18:05:00Z,27.1690,-82.9260,18.98,1111122 
COMPS,ioos:station:USF.COMPS:C10:1,2016-01-05T18:35:00Z,27.1690,-82.9260,19.51,1111122 
COMPS,ioos:station:USF.COMPS:C10:1,2016-01-05T19:05:00Z,27.1690,-82.9260,19.7,1111122 
COMPS,ioos:station:USF.COMPS:C10:1,2016-01-05T19:35:00Z,27.1690,-82.9260,20.12,1111122 
COMPS,ioos:station:USF.COMPS:C10:1,2016-01-05T20:05:00Z,27.1690,-82.9260,20.41,1111122 
COMPS,ioos:station:USF.COMPS:C10:1,2016-01-05T20:35:00Z,27.1690,-82.9260,20.69,1111122 
COMPS,ioos:station:USF.COMPS:C10:1,2016-01-06T05:05:00Z,27.1690,-82.9260,18.03,1111122 
COMPS,ioos:station:USF.COMPS:C10:1,2016-01-06T05:35:00Z,27.1690,-82.9260,17.91,1111122 
COMPS,ioos:station:USF.COMPS:C10:1,2016-01-06T06:05:00Z,27.1690,-82.9260,17.9,1111122 
COMPS,ioos:station:USF.COMPS:C10:1,2016-01-06T06:35:00Z,27.1690,-82.9260,17.99,1111122 
COMPS,ioos:station:USF.COMPS:C10:1,2016-01-06T07:05:00Z,27.1690,-82.9260,17.91,1111122 
COMPS,ioos:station:USF.COMPS:C10:1,2016-01-06T07:35:00Z,27.1690,-82.9260,17.93,1111122 
COMPS,ioos:station:USF.COMPS:C10:1,2016-01-06T08:05:00Z,27.1690,-82.9260,17.87,1111122 
COMPS,ioos:station:USF.COMPS:C10:1,2016-01-06T08:35:00Z,27.1690,-82.9260,17.95,1111122 
COMPS,ioos:station:USF.COMPS:C10:1,2016-01-06T11:05:00Z,27.1690,-82.9260,17.56,1111122 
COMPS,ioos:station:USF.COMPS:C10:1,2016-01-06T11:35:00Z,27.1690,-82.9260,17.23,1111122 
COMPS,ioos:station:USF.COMPS:C10:1,2016-01-06T12:05:00Z,27.1690,-82.9260,17.37,1111122 
COMPS,ioos:station:USF.COMPS:C10:1,2016-01-06T12:35:00Z,27.1690,-82.9260,17.42,1111122 
COMPS,ioos:station:USF.COMPS:C10:1,2016-01-06T13:05:00Z,27.1690,-82.9260,17.58,1111122 
COMPS,ioos:station:USF.COMPS:C10:1,2016-01-06T13:35:00Z,27.1690,-82.9260,17.66,1111122 
COMPS,ioos:station:USF.COMPS:C10:1,2016-01-06T14:05:00Z,27.1690,-82.9260,17.68,1111122 
COMPS,ioos:station:USF.COMPS:C10:1,2016-01-06T14:35:00Z,27.1690,-82.9260,17.5,1111122 
COMPS,ioos:station:USF.COMPS:C10:1,2016-01-06T15:05:00Z,27.1690,-82.9260,17.58,1111122 
COMPS,ioos:station:USF.COMPS:C10:1,2016-01-06T15:35:00Z,27.1690,-82.9260,17.64,1111122 
COMPS,ioos:station:USF.COMPS:C10:1,2016-01-06T16:05:00Z,27.1690,-82.9260,18.14,1111122 
COMPS,ioos:station:USF.COMPS:C10:1,2016-01-06T16:35:00Z,27.1690,-82.9260,18.48,1111122 
COMPS,ioos:station:USF.COMPS:C10:1,2016-01-06T17:05:00Z,27.1690,-82.9260,19.15,1111122 
COMPS,ioos:station:USF.COMPS:C10:1,2016-01-06T17:35:00Z,27.1690,-82.9260,19.73,1111122 
COMPS,ioos:station:USF.COMPS:C10:1,2016-01-06T18:05:00Z,27.1690,-82.9260,20.14,1111122 
COMPS,ioos:station:USF.COMPS:C10:1,2016-01-06T18:35:00Z,27.1690,-82.9260,20.22,1111122 
COMPS,ioos:station:USF.COMPS:C10:1,2016-01-06T19:05:00Z,27.1690,-82.9260,19.68,1111122 
COMPS,ioos:station:USF.COMPS:C10:1,2016-01-06T19:35:00Z,27.1690,-82.9260,20.24,1111122 
COMPS,ioos:station:USF.COMPS:C10:1,2016-01-06T20:05:00Z,27.1690,-82.9260,19.72,1111122 
COMPS,ioos:station:USF.COMPS:C10:1,2016-01-06T20:35:00Z,27.1690,-82.9260,19.64,1111122 
COMPS,ioos:station:USF.COMPS:C10:1,2016-01-06T21:05:00Z,27.1690,-82.9260,19.87,1111122 
COMPS,ioos:station:USF.COMPS:C10:1,2016-01-06T21:35:00Z,27.1690,-82.9260,20.11,1111122 
COMPS,ioos:station:USF.COMPS:C10:1,2016-01-06T23:05:00Z,27.1690,-82.9260,19.52,1111122 
COMPS,ioos:station:USF.COMPS:C10:1,2016-01-06T23:35:00Z,27.1690,-82.9260,19.18,1111122 
COMPS,ioos:station:USF.COMPS:C10:1,2016-01-07T02:05:00Z,27.1690,-82.9260,18.33,1111122 
COMPS,ioos:station:USF.COMPS:C10:1,2016-01-07T02:35:00Z,27.1690,-82.9260,18.09,1111122 
COMPS,ioos:station:USF.COMPS:C10:1,2016-01-07T05:05:00Z,27.1690,-82.9260,17.52,1111122 
COMPS,ioos:station:USF.COMPS:C10:1,2016-01-07T05:35:00Z,27.1690,-82.9260,17.4,1111122 
COMPS,ioos:station:USF.COMPS:C10:1,2016-01-07T06:05:00Z,27.1690,-82.9260,17.42,1111122 
COMPS,ioos:station:USF.COMPS:C10:1,2016-01-07T06:35:00Z,27.1690,-82.9260,17.24,1111122 
COMPS,ioos:station:USF.COMPS:C10:1,2016-01-07T07:05:00Z,27.1690,-82.9260,16.9,1111122 
COMPS,ioos:station:USF.COMPS:C10:1,2016-01-07T07:35:00Z,27.1690,-82.9260,16.93,1111122 
COMPS,ioos:station:USF.COMPS:C10:1,2016-01-07T08:05:00Z,27.1690,-82.9260,16.74,1111122 
COMPS,ioos:station:USF.COMPS:C10:1,2016-01-07T08:35:00Z,27.1690,-82.9260,16.59,1111122 
COMPS,ioos:station:USF.COMPS:C10:1,2016-01-07T09:05:00Z,27.1690,-82.9260,16.49,1111122 
COMPS,ioos:station:USF.COMPS:C10:1,2016-01-07T09:35:00Z,27.1690,-82.9260,16.39,1111122 
COMPS,ioos:station:USF.COMPS:C10:1,2016-01-07T10:05:00Z,27.1690,-82.9260,16.27,1111122 
COMPS,ioos:station:USF.COMPS:C10:1,2016-01-07T10:35:00Z,27.1690,-82.9260,16.19,1111122 
COMPS,ioos:station:USF.COMPS:C10:1,2016-01-07T11:05:00Z,27.1690,-82.9260,16.17,1111122 
COMPS,ioos:station:USF.COMPS:C10:1,2016-01-07T11:35:00Z,27.1690,-82.9260,15.96,1111122 
COMPS,ioos:station:USF.COMPS:C10:1,2016-01-07T12:05:00Z,27.1690,-82.9260,15.89,1111122 
COMPS,ioos:station:USF.COMPS:C10:1,2016-01-07T12:35:00Z,27.1690,-82.9260,15.85,1111122 
COMPS,ioos:station:USF.COMPS:C10:1,2016-01-07T13:05:00Z,27.1690,-82.9260,15.91,1111122 
COMPS,ioos:station:USF.COMPS:C10:1,2016-01-07T13:35:00Z,27.1690,-82.9260,15.59,1111122 
COMPS,ioos:station:USF.COMPS:C10:1,2016-01-07T14:05:00Z,27.1690,-82.9260,15.76,1111122 
COMPS,ioos:station:USF.COMPS:C10:1,2016-01-07T14:35:00Z,27.1690,-82.9260,15.79,1111122 
COMPS,ioos:station:USF.COMPS:C10:1,2016-01-07T15:05:00Z,27.1690,-82.9260,15.75,1111122 
COMPS,ioos:station:USF.COMPS:C10:1,2016-01-07T15:35:00Z,27.1690,-82.9260,15.72,1111122 
COMPS,ioos:station:USF.COMPS:C10:1,2016-01-07T16:05:00Z,27.1690,-82.9260,15.5,1111122 
COMPS,ioos:station:USF.COMPS:C10:1,2016-01-07T16:35:00Z,27.1690,-82.9260,15.67,1111122 
COMPS,ioos:station:USF.COMPS:C10:1,2016-01-07T17:05:00Z,27.1690,-82.9260,15.84,1111122 
COMPS,ioos:station:USF.COMPS:C10:1,2016-01-07T17:35:00Z,27.1690,-82.9260,16.08,1111122 
COMPS,ioos:station:USF.COMPS:C10:1,2016-01-07T18:05:00Z,27.1690,-82.9260,16.21,1111122 
COMPS,ioos:station:USF.COMPS:C10:1,2016-01-07T18:35:00Z,27.1690,-82.9260,16.57,1111122 
COMPS,ioos:station:USF.COMPS:C10:1,2016-01-07T19:05:00Z,27.1690,-82.9260,16.61,1111122 
COMPS,ioos:station:USF.COMPS:C10:1,2016-01-07T19:35:00Z,27.1690,-82.9260,16.81,1111122 
COMPS,ioos:station:USF.COMPS:C10:1,2016-01-07T20:05:00Z,27.1690,-82.9260,17.1,1111122 
COMPS,ioos:station:USF.COMPS:C10:1,2016-01-07T20:35:00Z,27.1690,-82.9260,17.36,1111122 
COMPS,ioos:station:USF.COMPS:C10:1,2016-01-07T21:05:00Z,27.1690,-82.9260,17.49,1111122 
COMPS,ioos:station:USF.COMPS:C10:1,2016-01-07T21:35:00Z,27.1690,-82.9260,17.66,1111122 
COMPS,ioos:station:USF.COMPS:C10:1,2016-01-07T22:05:00Z,27.1690,-82.9260,17.85,1111122 
COMPS,ioos:station:USF.COMPS:C10:1,2016-01-07T22:35:00Z,27.1690,-82.9260,18.0,1111122 
COMPS,ioos:station:USF.COMPS:C10:1,2016-01-07T23:05:00Z,27.1690,-82.9260,18.34,1111122 
COMPS,ioos:station:USF.COMPS:C10:1,2016-01-07T23:35:00Z,27.1690,-82.9260,18.69,1111122 
COMPS,ioos:station:USF.COMPS:C10:1,2016-01-08T05:05:00Z,27.1690,-82.9260,20.96,1111122 
COMPS,ioos:station:USF.COMPS:C10:1,2016-01-08T05:35:00Z,27.1690,-82.9260,20.99,1111122 
COMPS,ioos:station:USF.COMPS:C10:1,2016-01-08T06:05:00Z,27.1690,-82.9260,20.97,1111122 
COMPS,ioos:station:USF.COMPS:C10:1,2016-01-08T06:35:00Z,27.1690,-82.9260,21.24,1111122 
COMPS,ioos:station:USF.COMPS:C10:1,2016-01-08T07:05:00Z,27.1690,-82.9260,20.69,1111122 
COMPS,ioos:station:USF.COMPS:C10:1,2016-01-08T07:35:00Z,27.1690,-82.9260,21.03,1111122 
COMPS,ioos:station:USF.COMPS:C10:1,2016-01-08T08:05:00Z,27.1690,-82.9260,20.81,1111122 
COMPS,ioos:station:USF.COMPS:C10:1,2016-01-08T08:35:00Z,27.1690,-82.9260,20.79,1111122 
COMPS,ioos:station:USF.COMPS:C10:1,2016-01-08T09:05:00Z,27.1690,-82.9260,20.52,1111122 
COMPS,ioos:station:USF.COMPS:C10:1,2016-01-08T09:35:00Z,27.1690,-82.9260,20.46,1111122 
COMPS,ioos:station:USF.COMPS:C10:1,2016-01-08T10:05:00Z,27.1690,-82.9260,20.19,1111122 
COMPS,ioos:station:USF.COMPS:C10:1,2016-01-08T10:35:00Z,27.1690,-82.9260,19.9,1111122 
COMPS,ioos:station:USF.COMPS:C10:1,2016-01-08T11:05:00Z,27.1690,-82.9260,20.07,1111122 
COMPS,ioos:station:USF.COMPS:C10:1,2016-01-08T11:35:00Z,27.1690,-82.9260,20.26,1111122 
COMPS,ioos:station:USF.COMPS:C10:1,2016-01-08T12:05:00Z,27.1690,-82.9260,20.61,1111122 
COMPS,ioos:station:USF.COMPS:C10:1,2016-01-08T12:35:00Z,27.1690,-82.9260,20.73,1111122 
COMPS,ioos:station:USF.COMPS:C10:1,2016-01-08T13:05:00Z,27.1690,-82.9260,20.74,1111122 
COMPS,ioos:station:USF.COMPS:C10:1,2016-01-08T13:35:00Z,27.1690,-82.9260,20.57,1111122 
COMPS,ioos:station:USF.COMPS:C10:1,2016-01-08T14:05:00Z,27.1690,-82.9260,20.97,1111122 
COMPS,ioos:station:USF.COMPS:C10:1,2016-01-08T14:35:00Z,27.1690,-82.9260,21.11,1111122 
COMPS,ioos:station:USF.COMPS:C10:1,2016-01-08T15:05:00Z,27.1690,-82.9260,21.56,1111122 
COMPS,ioos:station:USF.COMPS:C10:1,2016-01-08T15:35:00Z,27.1690,-82.9260,21.81,1111122 
COMPS,ioos:station:USF.COMPS:C10:1,2016-01-08T16:05:00Z,27.1690,-82.9260,22.39,1111122 
COMPS,ioos:station:USF.COMPS:C10:1,2016-01-08T16:35:00Z,27.1690,-82.9260,22.5,1111122 
COMPS,ioos:station:USF.COMPS:C10:1,2016-01-08T17:05:00Z,27.1690,-82.9260,22.68,1111122 
COMPS,ioos:station:USF.COMPS:C10:1,2016-01-08T17:35:00Z,27.1690,-82.9260,23.15,1111122 
COMPS,ioos:station:USF.COMPS:C10:1,2016-01-08T18:05:00Z,27.1690,-82.9260,23.23,1111122 
COMPS,ioos:station:USF.COMPS:C10:1,2016-01-08T18:35:00Z,27.1690,-82.9260,23.27,1111122 